TimeCDT,TemperatureF,Dew PointF,Humidity,Sea Level PressureIn,VisibilityMPH,Wind Direction,Wind SpeedMPH,Gust SpeedMPH,PrecipitationIn,Events,Conditions,WindDirDegrees,DateUTC
12:15 AM,50.0,35.6,58,30.32,10.0,Calm,Calm,-,N/A,,Clear,0,2013-10-14 05:15:00
12:35 AM,50.0,35.6,58,30.31,10.0,Calm,Calm,-,N/A,,Clear,0,2013-10-14 05:35:00
12:55 AM,48.2,35.6,62,30.31,10.0,Calm,Calm,-,N/A,,Clear,0,2013-10-14 05:55:00
1:15 AM,46.4,35.6,66,30.31,10.0,Calm,Calm,-,N/A,,Clear,0,2013-10-14 06:15:00
1:35 AM,46.4,35.6,66,30.31,10.0,North,4.6,-,N/A,,Clear,10,2013-10-14 06:35:00
1:55 AM,46.4,35.6,66,30.31,10.0,Calm,Calm,-,N/A,,Scattered Clouds,0,2013-10-14 06:55:00
2:15 AM,46.4,35.6,66,30.31,10.0,ENE,5.8,-,N/A,,Partly Cloudy,60,2013-10-14 07:15:00
2:35 AM,46.4,35.6,66,30.30,10.0,NE,4.6,-,N/A,,Partly Cloudy,40,2013-10-14 07:35:00
2:55 AM,44.6,35.6,71,30.29,10.0,NNE,5.8,-,N/A,,Partly Cloudy,30,2013-10-14 07:55:00
3:15 AM,42.8,35.6,76,30.29,10.0,North,4.6,-,N/A,,Clear,10,2013-10-14 08:15:00
3:35 AM,44.6,35.6,71,30.28,10.0,NE,5.8,-,N/A,,Clear,40,2013-10-14 08:35:00
3:55 AM,42.8,33.8,70,30.28,10.0,Calm,Calm,-,N/A,,Clear,0,2013-10-14 08:55:00
4:15 AM,42.8,35.6,76,30.27,10.0,NNE,4.6,-,N/A,,Scattered Clouds,30,2013-10-14 09:15:00
4:35 AM,42.8,35.6,76,30.25,10.0,NNE,5.8,-,N/A,,Mostly Cloudy,20,2013-10-14 09:35:00
4:55 AM,44.6,33.8,66,30.24,10.0,Variable,4.6,-,N/A,,Partly Cloudy,0,2013-10-14 09:55:00
5:15 AM,44.6,33.8,66,30.24,10.0,Calm,Calm,-,N/A,,Clear,0,2013-10-14 10:15:00
5:35 AM,48.2,32.0,54,30.22,10.0,East,8.1,17.3,N/A,,Scattered Clouds,90,2013-10-14 10:35:00
5:55 AM,50.0,32.0,50,30.23,10.0,Variable,3.5,11.5,N/A,,Mostly Cloudy,0,2013-10-14 10:55:00
6:15 AM,50.0,32.0,50,30.23,10.0,ESE,9.2,-,N/A,,Overcast,110,2013-10-14 11:15:00
6:35 AM,50.0,32.0,50,30.22,10.0,ESE,8.1,-,N/A,,Overcast,120,2013-10-14 11:35:00
6:55 AM,50.0,32.0,50,30.21,10.0,ESE,10.4,18.4,N/A,,Overcast,110,2013-10-14 11:55:00
7:15 AM,50.0,32.0,50,30.21,10.0,ESE,9.2,-,N/A,,Overcast,110,2013-10-14 12:15:00
7:35 AM,50.0,32.0,50,30.21,10.0,Variable,5.8,-,N/A,,Overcast,0,2013-10-14 12:35:00
7:55 AM,51.8,32.0,47,30.20,10.0,SE,10.4,-,N/A,,Overcast,130,2013-10-14 12:55:00
8:15 AM,51.8,32.0,47,30.20,10.0,SE,9.2,23.0,N/A,,Mostly Cloudy,130,2013-10-14 13:15:00
8:35 AM,51.8,32.0,47,30.20,10.0,SE,10.4,17.3,N/A,,Overcast,130,2013-10-14 13:35:00
8:55 AM,51.8,32.0,47,30.19,10.0,ESE,11.5,-,N/A,,Overcast,120,2013-10-14 13:55:00
9:15 AM,53.6,32.0,44,30.20,10.0,SSE,9.2,16.1,N/A,,Overcast,160,2013-10-14 14:15:00
9:35 AM,53.6,32.0,44,30.19,10.0,SE,10.4,-,N/A,,Overcast,140,2013-10-14 14:35:00
9:55 AM,55.4,32.0,41,30.18,10.0,SE,16.1,-,N/A,,Mostly Cloudy,130,2013-10-14 14:55:00
10:15 AM,55.4,32.0,41,30.18,10.0,SE,17.3,-,N/A,,Overcast,140,2013-10-14 15:15:00
10:35 AM,55.4,33.8,44,30.16,10.0,SE,12.7,20.7,N/A,,Overcast,130,2013-10-14 15:35:00
10:55 AM,55.4,33.8,44,30.14,10.0,SE,13.8,26.5,N/A,,Mostly Cloudy,130,2013-10-14 15:55:00
11:15 AM,57.2,33.8,41,30.13,10.0,SE,16.1,24.2,N/A,,Mostly Cloudy,130,2013-10-14 16:15:00
11:35 AM,57.2,33.8,41,30.12,10.0,SE,16.1,25.3,N/A,Rain,Light Rain,130,2013-10-14 16:35:00
11:55 AM,57.2,35.6,44,30.12,10.0,SE,16.1,23.0,N/A,Rain,Light Rain,140,2013-10-14 16:55:00
12:15 PM,55.4,37.4,51,30.13,10.0,SSE,9.2,16.1,N/A,,Overcast,150,2013-10-14 17:15:00
12:35 PM,55.4,39.2,54,30.11,9.0,SE,10.4,-,N/A,Rain,Light Rain,130,2013-10-14 17:35:00
12:55 PM,55.4,41.0,58,30.10,6.0,SE,11.5,-,N/A,,Light Drizzle,140,2013-10-14 17:55:00
1:15 PM,53.6,42.8,67,30.06,3.0,SE,9.2,-,N/A,Rain,Light Rain,130,2013-10-14 18:15:00
1:35 PM,53.6,44.6,72,30.04,9.0,Variable,5.8,-,N/A,,Light Drizzle,0,2013-10-14 18:35:00
1:55 PM,55.4,46.4,72,30.02,10.0,ESE,5.8,-,0.03,,Mostly Cloudy,110,2013-10-14 18:55:00
2:15 PM,57.2,44.6,63,30.00,10.0,Variable,5.8,-,N/A,,Mostly Cloudy,0,2013-10-14 19:15:00
2:35 PM,60.8,41.0,48,29.99,10.0,SE,10.4,16.1,N/A,,Overcast,130,2013-10-14 19:35:00
2:55 PM,62.6,41.0,45,29.96,10.0,SE,13.8,21.9,N/A,,Overcast,130,2013-10-14 19:55:00
3:15 PM,64.4,39.2,40,29.95,10.0,SE,18.4,27.6,N/A,,Mostly Cloudy,140,2013-10-14 20:15:00
3:35 PM,66.2,39.2,37,29.94,10.0,SE,17.3,27.6,N/A,,Scattered Clouds,140,2013-10-14 20:35:00
3:55 PM,66.2,41.0,40,29.93,10.0,SSE,19.6,26.5,N/A,,Scattered Clouds,150,2013-10-14 20:55:00
4:15 PM,62.6,44.6,52,29.91,10.0,SE,17.3,27.6,N/A,,Light Drizzle,140,2013-10-14 21:15:00
4:35 PM,60.8,44.6,55,29.90,5.0,SE,15.0,24.2,N/A,Rain,Light Rain,140,2013-10-14 21:35:00
4:55 PM,60.8,46.4,59,29.91,4.0,SSE,12.7,19.6,0.01,Rain,Light Rain,150,2013-10-14 21:55:00
5:15 PM,60.8,46.4,59,29.89,10.0,SE,17.3,25.3,N/A,,Overcast,140,2013-10-14 22:15:00
5:35 PM,59.0,46.4,63,29.89,5.0,SE,15.0,25.3,N/A,,Light Drizzle,140,2013-10-14 22:35:00
5:55 PM,59.0,46.4,63,29.89,10.0,SE,17.3,25.3,0.01,,Overcast,140,2013-10-14 22:55:00
6:15 PM,57.2,48.2,72,29.89,4.0,SSE,12.7,20.7,N/A,Rain,Light Rain,150,2013-10-14 23:15:00
6:35 PM,57.2,48.2,72,29.88,10.0,SE,13.8,19.6,N/A,,Overcast,140,2013-10-14 23:35:00
6:55 PM,57.2,48.2,72,29.85,10.0,SE,12.7,-,0.02,,Overcast,130,2013-10-14 23:55:00
7:15 PM,57.2,48.2,72,29.85,9.0,SE,16.1,26.5,N/A,,Overcast,140,2013-10-15 00:15:00
7:35 PM,57.2,50.0,77,29.84,7.0,SE,17.3,26.5,N/A,,Overcast,140,2013-10-15 00:35:00
7:55 PM,55.4,50.0,82,29.83,10.0,SE,15.0,24.2,N/A,,Overcast,140,2013-10-15 00:55:00
8:15 PM,57.2,50.0,77,29.81,9.0,SSE,20.7,31.1,N/A,Rain,Light Rain,150,2013-10-15 01:15:00
8:35 PM,57.2,51.8,82,29.80,10.0,SSE,19.6,27.6,N/A,Rain,Light Rain,150,2013-10-15 01:35:00
8:55 PM,57.2,51.8,82,29.79,8.0,SE,24.2,32.2,0.01,,Overcast,140,2013-10-15 01:55:00
9:15 PM,57.2,51.8,82,29.79,10.0,SE,20.7,29.9,N/A,,Overcast,140,2013-10-15 02:15:00
9:35 PM,57.2,51.8,82,29.79,10.0,SSE,18.4,27.6,N/A,,Light Drizzle,160,2013-10-15 02:35:00
9:55 PM,57.2,53.6,88,29.80,2.5,SE,10.4,24.2,0.25,,Light Drizzle,140,2013-10-15 02:55:00
10:15 PM,57.2,53.6,88,29.82,2.0,SSE,9.2,-,N/A,Rain,Rain,160,2013-10-15 03:15:00
10:35 PM,57.2,55.4,94,29.82,3.0,South,6.9,16.1,N/A,Rain,Heavy Rain,180,2013-10-15 03:35:00
10:55 PM,57.2,55.4,94,29.83,3.0,SSW,9.2,-,0.51,Rain,Rain,200,2013-10-15 03:55:00
11:15 PM,57.2,57.2,100,29.79,3.0,SSE,10.4,-,N/A,Rain,Rain,150,2013-10-15 04:15:00
11:35 PM,57.2,57.2,100,29.78,5.0,SSE,12.7,19.6,N/A,Rain,Light Rain,160,2013-10-15 04:35:00
11:55 PM,59.0,57.2,94,29.76,10.0,SSE,13.8,25.3,0.10,,Overcast,160,2013-10-15 04:55:00